{"data":{"norad_id":53069,"intl_designator":"2022-077AC","name":"STARLINK-4323","alt_names":[],"object_type":"PAYLOAD","status":"ACTIVE","operator":null,"country":"US","launch_date":"2022-07-11","launch_site_code":"AFWTR","launch_vehicle":null,"mission":null,"orbit_class":"UNKNOWN","rcs_meters":null,"size_class":null,"mass_kg":null,"dimensions":null,"purposes":["comms"],"wikipedia_slug":null,"has_3d_model":false,"image_url":null,"decayed_at":null,"tle_current":{"epoch":"2026-09-18T04:54:39.295872Z","epoch_age_seconds":270637,"freshness":"STALE","line1":"1 53069U 22077AC  26261.20462148  .00000920  00000+0  30825-4 0  9997","line2":"2 53069  97.2844  76.0814 0001728  87.5827 272.5614 15.33433439229941","mean_motion":15.33433439,"eccentricity":0.0001728,"inclination_deg":97.2844,"raan_deg":76.0814,"arg_perigee_deg":87.5827,"mean_anomaly_deg":272.5614,"bstar":3.0825e-5,"rev_number":22994,"period_min":93.906912642982,"perigee_km":464.39497821833,"apogee_km":466.76016597444,"semimajor_km":6843.7145720964,"source":"CELESTRAK","updated_at":"2026-09-20T09:00:40.155177Z"}}}